Location: Poughquag
(41.6090°N, 73.6820°W)
Time: 10:34:23
(UTC-05:00)

deb Explorer IX - Pass Details

Date: 15 December 2023
Orbit: 516 x 916 km, 38.7° (Epoch: 29 February)

Event Time Altitude Azimuth Distance (km) Brightness Sun altitude
Rises 18:28:47 0° 260° (W) 2,723 ? -22.2°
Reaches altitude 10° 18:31:07 10° 257° (WSW) 1,790 ? -22.7°
Enters shadow 18:34:56 57° 190° (S) 616 ? -23.4°
